User: anonymous   Login
Location: Unspecified
(0.0000°N, 0.0000°E)
Time: 22:25:48
(UTC+00:00)
Language:

Kosmos-1759 - Orbit

View from above orbital plane
View from above orbital plane
View from above satellite
View from above satellite

Ground track
Ground track

The orbit data is extracted from the following two-line orbital elements,

1 16798U 86047A   18168.51546118  .00000018  00000-0  24846-5 0  9999
2 16798  82.9198 199.6144 0025902 119.0399 348.7373 13.74948616605425
Epoch (UTC): 17 June 2018 12:22:15
Eccentricity: 0.0025902
inclination: 82.9198°
perigee height: 963 km
apogee height: 1001 km
right ascension of ascending node: 199.6144°
argument of perigee: 119.0399°
revolutions per day: 13.74948616
mean anomaly at epoch: 348.7373°
orbit number at epoch: 60542

The dashed part of the orbit path shows where the satellite is in the earth's shadow,  

DLR